OPS 5798 DEB, 901

Orbit data source: Space-Track

OPS 5798 DEB, 901 is space debris in LEO originally from a launch on Tue, 06 Oct 1964 UTC launched from the Air Force Western Test Range (AFWTR). Debris objects in space refer to the collection of defunct objects orbiting the Earth. Examples of debris include non-operational satellites, rocket bodies, and fragments generated from explosions, collisions, or faulty payload assembly.

Loading next visibility...
Identifier
901, 1964-063D
Orbit
LEO
Country
Flag of USUS
Related business
Manufacturer
NAFI?
Mission
Spacecraft
Bus & Motor
Unknown
Mass
~20 kg wet, ~20 kg dry
Launch date (UTC)
1964-10-06 (62 years ago)
Launch vehicle
Unknown
Launch site
Air Force Western Test Range (AFWTR)
Object type
Payload
Rocket body
Debris
Shape & HBR
Unknown shape, 0.6 m
Radar Cross Section
Medium (>0.1 m² and <1 m²)

Expand to show TLE details & history
Last TLE update: 6 days ago

TLE from 6 days ago
0 OPS 5798 DEB
1   901U 64063D   26154.22666536  .00000094  00000-0  12334-3 0  9992
2   901  90.2383  76.0995 0019563 156.7651 318.0907 13.55143610 44575
Epoch: 2026-06-03T05:26Z
TLE epoch observation values (Epoch: 2026-06-03T05:26:23.887Z)
Latitude
65.37451°
Longitude
-76.67114°
Altitude
1,053.961 km
Speed
7.336 km/s
True Right ascension
17h 06m 28s
True Declination
65° 14' 57"
Sunlit
Object was in daylight at epoch
Visualization orbit readout
Latitude
Unknown
Longitude
Unknown
Altitude
Unknown
Speed
Unknown
Apparent Right ascension
Unknown
Apparent Declination
Unknown
Sunlit
N/A
Visualization observer readout
Local Sidereal Time
04:29:14
Azimuth
Unknown
Elevation
Unknown
Doppler factor
Unknown
Orbital elements
Apogee altitude
1,064.969 km
Perigee altitude
1,035.904 km
Semi-major axis
7,428.573 km
Eccentricity
0.00196
Inclination
90.2383°
RAAN
76.0995°
Arg. of periapsis
156.7651°
True anomaly
317.94069°
Mean anomaly
318.0907°
Eccentric anomaly
318.01572°
Mean motion
3.38989 °/min
Orbital period
106.2 mins
BSTAR
0.00012334
Loading maneuver chart data...
Computing Atmospheric mass density...
Loading historical data...
Loading historical data...
Loading historical data...
Loading historical data...
Loading historical data...
Loading historical data...
Loading historical data...

Documentation

Showing up to 5 results
|